Left ArrowRight Arrow

38.83388, -104.82136

Hourly Observations for September 2, 2018

Temp ( °F °C ) Dew Point ( °F °C ) Humidity (%) Winds ( mph kmh ) Pressure ( in mb ) Visibility ( mi km ) Precip ( " mm )
12:37 am 00:37 Mostly Cloudy 57 14 45 7 63 63 WNW 20 31 29.59 1002 10 16 0.00 0.00
12:58 am 00:58 Mostly Cloudy 58 14.6 43 6.2 57 57 WNW 24 39 29.59 1002 10 16 0.09 2.29
1:11 am 01:11 Windy with Rain Showers Likely 59 15 43 6 55 55 WNW 20 31 29.62 1003 10 16 0.00 0.00
1:57 am 01:57 Mostly Cloudy 61 16 41 5 48 48 NW 15 24 29.57 1001 10 16 0.00 0.00
1:58 am 01:58 Mostly Cloudy 60 15.7 41 4.9 49 49 NW 14 22 29.57 1001 10 16 0.01 0.25
2:58 am 02:58 Mostly Cloudy 63 17.2 38 3.6 41 41 WNW 16 26 29.51 999 10 16 0.01 0.25
3:58 am 03:58 Mostly Cloudy 64 17.6 37 2.7 37 37 WNW 17 28 29.49 999 10 16 0.00 0.00
4:58 am 04:58 Mostly Cloudy 63 17.3 42 5.6 46 46 WNW 6 9 29.51 999 10 16 0.00 0.00
5:58 am 05:58 Mostly Cloudy 66 18.7 37 2.6 34 34 NW 9 15 29.52 1000 10 16 0.00 0.00
6:58 am 06:58 Mostly Cloudy 68 19.8 33 0.5 28 28 NW 13 20 29.55 1001 10 16 0.00 0.00
7:58 am 07:58 Mostly Cloudy 69 20.4 33 0.5 27 27 NW 13 20 29.56 1001 10 16 0.00 0.00
8:52 am 08:52 Cloudy with Light Rain and Nearby Thunderstorms 61 16 41 5 48 48 S 8 13 29.66 1004 10 16 0.00 0.00
8:58 am 08:58 Cloudy with Light Showers and Nearby Thunderstorms 61 15.9 41 5.2 49 49 SW 9 15 29.66 1004 10 16 0.00 0.00
9:28 am 09:28 Mostly Cloudy 64 18 36 2 34 34 Calm 29.61 1003 10 16 0.00 0.00
9:58 am 09:58 Mostly Cloudy 66 18.7 37 2.6 34 34 SSE 6 9 29.63 1004 10 16 0.00 0.00
10:58 am 10:58 Mostly Sunny 63 17.2 46 7.9 55 55 ESE 8 13 29.71 1006 10 16 0.00 0.00
11:58 am 11:58 Partly Cloudy 63 17 49 9.3 61 61 ESE 7 11 29.72 1007 10 16 0.00 0.00
12:58 pm 12:58 Mostly Cloudy 65 18.2 47 8.1 52 52 Calm 29.71 1006 10 16 0.00 0.00
1:58 pm 13:58 Mostly Sunny 71 21.4 42 5.5 36 36 NNE 9 15 29.67 1005 10 16 0.00 0.00
2:58 pm 14:58 Sunny 72 22.4 39 4.1 30 30 E 6 9 29.63 1003 9 14 0.00 0.00
3:58 pm 15:58 Mostly Cloudy 72 22.1 35 1.8 26 26 ESE 7 11 29.62 1003 10 16 0.00 0.00
4:58 pm 16:58 Cloudy 68 20.1 41 4.8 37 37 S 7 11 29.62 1003 10 16 0.00 0.00
5:58 pm 17:58 Mostly Cloudy 68 19.9 37 2.9 33 33 S 7 11 29.62 1003 10 16 0.00 0.00
6:58 pm 18:58 Partly Cloudy 68 19.9 37 2.9 33 33 NW 13 20 29.62 1003 10 16 0.00 0.00
7:58 pm 19:58 Mostly Cloudy 65 18.5 37 2.7 35 35 WNW 7 11 29.63 1003 10 16 0.00 0.00
8:58 pm 20:58 Mostly Cloudy 64 17.9 37 2.9 37 37 WSW 3 6 29.70 1006 10 16 0.00 0.00
9:58 pm 21:58 Mostly Cloudy 66 18.9 36 2.4 33 33 Calm 29.67 1005 10 16 0.00 0.00
10:58 pm 22:58 Mostly Cloudy 63 17.1 40 4.3 43 43 W 5 7 29.72 1006 10 16 0.00 0.00
11:58 pm 23:58 Partly Cloudy 62 16.8 47 8.1 57 57 S 7 11 29.72 1006 10 16 0.00 0.00

Powered by Vaisala Xweather